[[{"header":{"parameterUnit":"m.s-1","parameterCategory":1,"la1":30.2991,"la2":30.254,"lo1":-89.0895,"lo2":-89.0444,"dy":0.0017,"dx":0.0017,"nx":28,"ny":28,"refTime":"2025-01-11T03:00:00:Z","depth":0,"parameterNumber":2,"parameterNumberName":"U-component_of_WINDS"},"data":[0,0,0,0,0,0,0,0,0,0,0,0,0,0,0,0,0,0,0,0,0,0,0,0,0,0,0,0,0,0,0,0,0,0,0,0,0,0,0,0,0,0,0,0,0,0,0,0,0,0,0,0,0,0,0,0,0,0,-3.3535,-3.3536,0,-3.3646,-3.3648,-3.3649,-3.363,-3.3628,-3.3626,-3.3624,-3.3735,-3.374,-3.3745,0,0,0,0,0,0,0,0,0,0,0,0,0,-3.3303,-3.3307,-3.3535,-3.3536,-3.3538,-3.3646,-3.3648,-3.3649,-3.363,-3.3628,-3.3626,-3.3623,-3.3734,-3.3739,-3.3745,0,0,0,0,0,0,0,0,0,0,0,0,0,-3.3408,-3.3308,-3.3535,-3.3541,-3.3543,-3.3646,-3.3648,-3.3649,-3.3631,-3.3628,-3.3625,-3.3622,-3.3732,-3.3739,-3.3746,-3.3848,0,0,-3.3768,-3.3771,0,0,0,0,0,0,0,0,-3.3402,-3.3416,-3.3539,-3.3541,-3.3543,-3.3621,-3.3606,-3.3716,-3.3631,-3.3597,-3.3624,-3.3621,-3.37,-3.3709,-3.3736,-3.3853,-3.3858,-3.3768,-3.3773,-3.3776,-3.3778,0,0,0,0,0,0,0,-3.3394,-3.3411,-3.3579,-3.3541,-3.3543,-3.3538,-3.3549,-3.3627,-3.3663,-3.36,-3.3599,-3.3613,-3.37,-3.373,-3.3739,-3.386,-3.3768,-3.3775,-3.3779,-3.3782,-3.4064,-3.4067,0,0,0,0,0,0,-3.3386,-3.3405,-3.3575,-3.3582,-3.3464,-3.3544,-3.3557,-3.3599,-3.3662,-3.3669,-3.3615,-3.3611,-3.3719,-3.3731,-3.3743,-3.3865,-3.3776,-3.3782,-3.3787,-3.4061,-3.4065,-3.4068,0,0,0,0,0,0,-3.3381,-3.3401,-3.3571,-3.3494,-3.3515,-3.3551,-3.3598,-3.3603,-3.3632,-3.3674,-3.368,-3.3639,-3.3717,-3.3733,-3.3822,-3.3868,-3.3786,-3.3792,-3.4057,-3.4062,-3.4067,-3.4111,0,0,0,0,0,0,-3.3374,-3.3399,-3.3439,-3.3495,-3.3519,-3.3649,-3.3601,-3.3607,-3.3645,-3.3641,-3.3697,-3.3704,-3.3716,-3.3811,-3.3829,-3.3877,-3.3798,-3.4053,-3.4059,-3.4065,-3.4105,-3.4116,-3.4126,0,0,0,0,0,-3.3366,-3.3447,-3.3441,-3.3462,-3.357,-3.3652,-3.3666,-3.3679,-3.3649,-3.3688,-3.3715,-3.3702,-3.3861,-3.3821,-3.384,-3.3891,-3.405,-3.4058,-3.4065,-3.4101,-3.4114,-3.4126,0,0,0,0,0,0,-3.3395,-3.3454,-3.3449,-3.3551,-3.3596,-3.3649,-3.3699,-3.3693,-3.3748,-3.3742,-3.3755,-3.3768,-3.3858,-3.3884,-3.3837,-3.3992,-3.3951,-3.3963,-3.3972,-3.3985,-3.3995,-3.3986,-3.3804,0,0,0,0,0,-3.3414,-3.3477,-3.3525,-3.361,-3.3633,-3.3662,-3.3698,-3.3705,-3.3752,-3.3771,-3.3804,-3.385,-3.391,-3.3949,-3.4007,-3.411,-3.412,-3.4154,-3.4164,-3.4173,-3.4182,-3.4236,-3.4251,-3.4092,-3.4092,-3.4092,0,0,-3.3452,-3.3493,-3.3531,-3.3617,-3.3653,-3.3716,-3.3679,-3.3748,-3.3794,-3.3781,-3.3867,-3.3893,-3.3945,-3.4041,-3.4085,-3.4065,-3.4229,-3.4182,-3.4188,-3.4193,-3.4245,-3.426,-3.4273,-3.4097,-3.4096,-3.4095,0,0,-3.3555,-3.3592,-3.3666,-3.3703,-3.3759,-3.3778,-3.3796,-3.3849,-3.3866,-3.3953,-3.3944,-3.3999,-3.4103,-3.414,-3.4172,-3.4288,-3.4277,-3.4307,-3.436,-3.4413,-3.4425,-3.4436,-3.4476,-3.449,-3.4316,-3.4316,-3.4316,0,-3.3595,-3.3691,-3.3705,-3.3775,-3.3811,-3.3804,-3.3878,-3.3913,-3.3985,-3.401,-3.3987,-3.4117,-3.4151,-3.4255,-3.4283,-3.431,-3.4329,-3.4299,-3.4423,-3.4434,-3.4444,-3.4482,-3.4497,-3.4319,-3.4319,-3.4318,-3.4318,0,-3.3737,-3.3804,-3.3857,-3.3926,-3.3969,-3.4041,-3.4064,-3.4106,-3.4109,-3.413,-3.4217,-3.4259,-3.4324,-3.4349,-3.4352,-3.4453,-3.4439,-3.442,-3.4378,-3.4462,-3.4498,-3.4512,-3.4323,-3.4322,-3.4321,-3.4321,0,0,-3.386,-3.3936,-3.3955,-3.3986,-3.4046,-3.4098,-3.4168,-3.4233,-3.4268,-3.4317,-3.4375,-3.4464,-3.4446,-3.4483,-3.449,-3.4536,-3.4623,-3.4511,-3.4513,-3.4529,-3.4734,-3.4746,-3.4763,-3.4617,-3.462,-3.4622,-3.4729,0,-3.3966,-3.4092,-3.4106,-3.4217,-3.4278,-3.4271,-3.4333,-3.4376,-3.4397,-3.4451,-3.4474,-3.4536,-3.4509,-3.4531,-3.4577,-3.4603,-3.4664,-3.4595,-3.467,-3.4672,-3.4655,-3.4782,-3.4795,-3.4894,-3.4743,-3.4745,-3.4747,0,-3.4107,-3.416,-3.4278,-3.4329,-3.4354,-3.441,-3.4469,-3.4521,-3.4569,-3.4582,-3.4623,-3.4624,-3.4695,-3.4653,-3.475,-3.4703,-3.4735,-3.4752,-3.4756,-3.4762,-3.4713,-3.4789,-3.4926,-3.494,-3.4769,-3.4768,-3.4766,0,-3.4182,-3.4283,-3.4366,-3.4393,-3.4455,-3.4494,-3.4521,-3.4567,-3.4604,-3.4656,-3.468,-3.474,-3.4772,-3.4818,-3.4834,-3.4802,-3.4931,-3.489,-3.4941,-3.4941,-3.4967,-3.4964,-3.5109,-3.4991,-3.4991,-3.499,-3.499,0,-3.4297,-3.4369,-3.4401,-3.4451,-3.4531,-3.4546,-3.4624,-3.465,-3.4691,-3.4745,-3.4744,-3.4795,-3.4815,-3.4869,-3.4882,-3.496,-3.4975,-3.4986,-3.4988,-3.4985,-3.4983,-3.5004,-3.4996,-3.4994,-3.4993,-3.4993,-3.4992,0,-3.4394,-3.4419,-3.4508,-3.456,-3.4574,-3.463,-3.4674,-3.4722,-3.4743,-3.4812,-3.4829,-3.4862,-3.4925,-3.4947,-3.5024,-3.5033,-3.5123,-3.512,-3.5106,-3.5106,-3.5155,-3.515,-3.5316,-3.5338,-3.5208,-3.5209,-3.521,0,-3.4465,-3.452,-3.4578,-3.4614,-3.4643,-3.4703,-3.4741,-3.4758,-3.4798,-3.4857,-3.4898,-3.4961,-3.5012,-3.5114,-3.5143,-3.5202,-3.5199,-3.5254,-3.5208,-3.5202,-3.5198,-3.5193,-3.5198,-3.5262,-3.5263,-3.5264,-3.5265,0,-3.4589,-3.4598,-3.4653,-3.4713,-3.4759,-3.4806,-3.4852,-3.4882,-3.4906,-3.495,-3.5016,-3.5055,-3.5134,-3.5196,-3.5256,-3.5283,-3.5277,-3.5279,-3.5294,-3.529,-3.5279,-3.5283,-3.5127,-3.5275,-3.5274,-3.5273,-3.5273,-3.5272,-3.4674,-3.4721,-3.4769,-3.483,-3.4867,-3.4909,-3.4957,-3.4984,-3.5039,-3.5104,-3.5111,-3.518,-3.5226,-3.5306,-3.5336,-3.539,-3.5375,-3.5396,-3.5401,-3.5406,-3.5408,-3.5272,-3.5401,-3.5401,-3.5401,-3.5401,-3.54,0,-3.4795,-3.4825,-3.4882,-3.4946,-3.4994,-3.4986,-3.5036,-3.5076,-3.5138,-3.5181,-3.5232,-3.5306,-3.5366,-3.54,-3.546,-3.5497,-3.5496,-3.5512,-3.5508,-3.5514,-3.542,-3.54,-3.5511,-3.5511,-3.5511,-3.5511,-3.5511,-3.5511,-3.4863,-3.4943,-3.4958,-3.5055,-3.5085,-3.5153,-3.5182,-3.5221,-3.5256,-3.5338,-3.5388,-3.5411,-3.5451,-3.5513,-3.5567,-3.5576,-3.5597,-3.5614,-3.5621,-3.5532,-3.5521,-3.551,-3.5491,-3.5619,-3.562,-3.571,-3.5711,-3.5712]},{"header":{"parameterUnit":"m.s-1","parameterCategory":1,"la1":30.2991,"la2":30.254,"lo1":-89.0895,"lo2":-89.0444,"dy":0.0017,"dx":0.0017,"nx":28,"ny":28,"refTime":"2025-01-11T03:00:00:Z","depth":0,"parameterNumber":3,"parameterNumberName":"V-component_of_WINDS"},"data":[0,0,0,0,0,0,0,0,0,0,0,0,0,0,0,0,0,0,0,0,0,0,0,0,0,0,0,0,0,0,0,0,0,0,0,0,0,0,0,0,0,0,0,0,0,0,0,0,0,0,0,0,0,0,0,0,0,0,1.0131,1.013,0,1.0088,1.0088,1.0087,1.0008,1.0006,1.0005,1.0003,0.9961,0.9961,0.9962,0,0,0,0,0,0,0,0,0,0,0,0,0,1.0144,1.0144,1.0131,1.013,1.013,1.0088,1.0088,1.0087,1.0008,1.0006,1.0004,1.0003,0.9961,0.9961,0.9962,0,0,0,0,0,0,0,0,0,0,0,0,0,1.0124,1.0144,1.0131,1.0085,1.0081,1.0088,1.0087,1.0087,1.0008,1.0006,1.0004,1.0002,0.9961,0.9961,0.9962,1.0011,0,0,0.9963,0.9963,0,0,0,0,0,0,0,0,1.0125,1.0123,1.0092,1.0088,1.0083,1.0051,1.0077,1.0061,1.0009,1.0036,1.0003,1.0001,0.9993,0.9991,0.9988,1.0009,1.0007,0.9963,0.9964,0.9964,0.9964,0,0,0,0,0,0,0,1.0127,1.0125,1.0114,1.0092,1.0086,1.0067,1.0062,1.0073,1.0028,1.0033,1.0027,1.0023,0.999,0.9987,0.9986,1.0006,0.9963,0.9964,0.9964,0.9964,1.0064,1.0067,0,0,0,0,0,0,1.0134,1.0126,1.0115,1.0112,1.0099,1.0069,1.0063,1.0064,1.0028,1.002,1.0025,1.002,0.9988,0.9986,0.9984,1.0038,0.9964,0.9964,0.9964,1.0062,1.0065,1.0067,0,0,0,0,0,0,1.0135,1.0134,1.0117,1.0118,1.0114,1.0071,1.0073,1.0064,1.0061,1.0022,1.0013,1.0031,0.9986,0.9984,1.0004,1.0036,0.9964,0.9965,1.0059,1.0063,1.0066,1.0147,0,0,0,0,0,0,1.0136,1.0135,1.0153,1.0119,1.0114,1.0138,1.0075,1.0065,1.0062,1.0054,1.0025,1.0018,0.9984,1.0004,1.0005,1.0035,0.9965,1.0056,1.0061,1.0065,1.0142,1.0153,1.0163,0,0,0,0,0,1.0137,1.0178,1.0154,1.0153,1.0136,1.014,1.0137,1.0097,1.0065,1.0083,1.0057,1.0019,1.0032,1.0007,1.0007,1.0038,1.0054,1.0059,1.0065,1.0137,1.0151,1.0163,0,0,0,0,0,0,1.0218,1.0173,1.0146,1.0178,1.0163,1.0126,1.0147,1.0114,1.0108,1.0101,1.0052,1.0046,1.0073,1.0058,1.003,1.0083,1.0037,1.0043,1.0092,1.0105,1.0116,1.0119,0.9966,0,0,0,0,0,1.0239,1.0246,1.0206,1.0238,1.0232,1.0191,1.0191,1.0162,1.0145,1.0138,1.0114,1.01,1.01,1.0102,1.0101,1.0139,1.0131,1.0161,1.0171,1.018,1.0186,1.0204,1.0216,1.0085,1.0085,1.0085,0,0,1.0284,1.026,1.0267,1.0254,1.0239,1.0247,1.0187,1.0198,1.0203,1.014,1.0158,1.014,1.012,1.015,1.0162,1.0137,1.022,1.0187,1.0195,1.0195,1.0211,1.0223,1.0234,1.0089,1.0088,1.0087,0,0,1.0369,1.0352,1.0376,1.0362,1.034,1.0313,1.0319,1.0287,1.0272,1.0289,1.0242,1.0248,1.025,1.0238,1.0232,1.0312,1.0276,1.0313,1.0369,1.0387,1.0398,1.0406,1.0434,1.0445,1.0318,1.0319,1.0319,0,1.0427,1.0437,1.0393,1.0406,1.0402,1.0345,1.0369,1.0357,1.0337,1.0335,1.0308,1.0309,1.0292,1.0318,1.0337,1.0335,1.0339,1.0316,1.04,1.0408,1.0416,1.0441,1.0452,1.0323,1.0323,1.0322,1.0322,0,1.0509,1.0517,1.0539,1.0519,1.0517,1.0536,1.0495,1.0498,1.0468,1.0444,1.0461,1.0439,1.0431,1.0435,1.0407,1.0456,1.0442,1.0409,1.0361,1.0434,1.0457,1.0466,1.033,1.0328,1.0327,1.0326,0,0,1.0644,1.0599,1.0608,1.0598,1.057,1.0574,1.0591,1.0583,1.0586,1.0574,1.0585,1.0589,1.0557,1.055,1.052,1.0537,1.06,1.05,1.0499,1.0519,1.0652,1.0677,1.0689,1.0576,1.0578,1.0579,1.0653,0,1.0722,1.0747,1.0708,1.0741,1.0747,1.0693,1.0707,1.0691,1.0668,1.067,1.0645,1.0647,1.0606,1.0601,1.0615,1.0589,1.0626,1.0584,1.0586,1.0587,1.0592,1.0701,1.0728,1.0799,1.0662,1.0664,1.0665,0,1.0817,1.0808,1.0842,1.081,1.0811,1.0825,1.0814,1.0816,1.0797,1.0779,1.0771,1.0735,1.0749,1.0704,1.0721,1.0693,1.0692,1.068,1.0681,1.0679,1.063,1.0701,1.082,1.0831,1.0679,1.0678,1.0677,0,1.0911,1.0908,1.0927,1.092,1.0884,1.0895,1.088,1.0858,1.0856,1.0847,1.0844,1.0837,1.0833,1.0828,1.0791,1.0762,1.0813,1.0765,1.0798,1.0799,1.0811,1.081,1.0931,1.0812,1.0812,1.0811,1.0811,0,1.1001,1.1024,1.0968,1.0981,1.1004,1.0959,1.0984,1.0964,1.0945,1.0952,1.0905,1.0913,1.0864,1.0866,1.0837,1.0855,1.0854,1.084,1.0832,1.0844,1.0846,1.0842,1.0836,1.0814,1.0814,1.0813,1.0813,0,1.111,1.1074,1.1091,1.1055,1.1047,1.1066,1.1035,1.1045,1.1019,1.1029,1.1028,1.0988,1.0988,1.0951,1.0944,1.0924,1.0954,1.0938,1.0961,1.0955,1.099,1.0987,1.1111,1.1125,1.0999,1.1,1.1001,0,1.117,1.1186,1.1152,1.1153,1.114,1.1143,1.114,1.1096,1.1095,1.1074,1.1086,1.1082,1.1077,1.1079,1.105,1.1044,1.1026,1.107,1.1025,1.1036,1.1025,1.1024,1.1025,1.1079,1.1081,1.1082,1.1083,0,1.128,1.1261,1.1258,1.1249,1.1247,1.1238,1.1226,1.1229,1.1181,1.1182,1.1181,1.1177,1.1169,1.1166,1.1154,1.1139,1.1103,1.1098,1.1105,1.1117,1.1129,1.1122,1.0986,1.1095,1.1094,1.1093,1.1092,1.1092,1.1365,1.1377,1.1354,1.1352,1.1338,1.1328,1.1335,1.131,1.1308,1.1298,1.1272,1.1276,1.1255,1.1236,1.1224,1.1225,1.1203,1.1214,1.1217,1.122,1.1226,1.1129,1.1223,1.1223,1.1223,1.1222,1.1222,0,1.1472,1.1455,1.1454,1.1438,1.1436,1.1402,1.1387,1.1388,1.1391,1.1375,1.137,1.1369,1.1366,1.1335,1.1328,1.1335,1.1318,1.1335,1.1333,1.133,1.1247,1.1241,1.1348,1.1348,1.1348,1.1348,1.1348,1.1348,1.1527,1.1544,1.1523,1.1532,1.1515,1.1517,1.1511,1.1501,1.1488,1.1488,1.1485,1.1465,1.1443,1.1433,1.1428,1.1419,1.1419,1.144,1.1426,1.1348,1.1336,1.1325,1.1319,1.1441,1.1441,1.1509,1.151,1.151]}]]